User: anonymous   Login
Location: Armidale
(30.5016°S, 151.6662°E)
Time: 06:36:29
(UTC+10:00)
Language:

Oscar 19 - Orbit

View from above orbital plane
View from above orbital plane
View from above satellite
View from above satellite

Ground track
Ground track

The orbit data is extracted from the following two-line orbital elements,

1 20442U 90005G   21204.44649733 -.00000002  00000-0  15666-4 0  9996
2 20442  98.7434 160.2452 0012782  58.2031 302.0396 14.32991955645981
Epoch (UTC): 23 July 2021 10:42:57
Eccentricity: 0.0012782
inclination: 98.7434°
perigee height: 772 km
apogee height: 791 km
right ascension of ascending node: 160.2452°
argument of perigee: 58.2031°
revolutions per day: 14.32991955
mean anomaly at epoch: 302.0396°
orbit number at epoch: 64598

The dashed part of the orbit path shows where the satellite is in the earth's shadow,  

DLR